PUA2046 SULS-SABE

Flight info

Callsign PUA2046
Flight time 0h 39m
Altitude 20000
Route LUCIO A306 UGIMI
Aircraft A320/M-SDE3FGHIRWY/LB1

Departure

Time 2026-04-26 20:55
Airport Capitan Corbeta CA Curbelo International Airport (SULS)

Arrival

Time 2026-04-26 21:35
Airport Aeroparque Jorge Newbery (SABE)
Time Latitude Longitude Altitude Speed Heading
2026-04-26 20:18 -34.85949 -55.09852 101 ft 0 kts 161°
2026-04-26 20:48 -34.85955 -55.09850 100 ft 1 kts 161°
2026-04-26 20:48 -34.85972 -55.09840 100 ft 6 kts 147°
2026-04-26 20:48 -34.85968 -55.09801 99 ft 5 kts 39°
2026-04-26 20:48 -34.85934 -55.09807 100 ft 5 kts 341°
2026-04-26 20:49 -34.85897 -55.09822 100 ft 7 kts 341°
2026-04-26 20:49 -34.85849 -55.09842 100 ft 8 kts 341°
2026-04-26 20:49 -34.85794 -55.09864 100 ft 9 kts 341°
2026-04-26 20:49 -34.85747 -55.09883 101 ft 0 kts 343°
2026-04-26 20:51 -34.85745 -55.09883 101 ft 2 kts 343°
2026-04-26 20:51 -34.85714 -55.09895 101 ft 6 kts 343°
2026-04-26 20:51 -34.85676 -55.09909 102 ft 6 kts 343°
2026-04-26 20:51 -34.85636 -55.09887 102 ft 7 kts 61°
2026-04-26 20:52 -34.85606 -55.09780 102 ft 19 kts 72°
2026-04-26 20:52 -34.85569 -55.09628 103 ft 18 kts 76°
2026-04-26 20:52 -34.85531 -55.09488 101 ft 17 kts 71°
2026-04-26 20:52 -34.85497 -55.09366 103 ft 14 kts 71°
2026-04-26 20:53 -34.85463 -55.09246 101 ft 16 kts 72°
2026-04-26 20:53 -34.85431 -55.09120 99 ft 16 kts 73°
2026-04-26 20:53 -34.85426 -55.09019 99 ft 10 kts 47°
2026-04-26 20:53 -34.85410 -55.09038 101 ft 4 kts 259°
2026-04-26 20:54 -34.85415 -55.09057 100 ft 0 kts 251°
2026-04-26 20:54 -34.85415 -55.09058 100 ft 1 kts 251°
2026-04-26 20:55 -34.85458 -55.09219 102 ft 54 kts 252°
2026-04-26 20:55 -34.85647 -55.09923 103 ft 117 kts 252°
2026-04-26 20:55 -34.85923 -55.11008 427 ft 141 kts 259°
2026-04-26 20:55 -34.86226 -55.12163 1090 ft 145 kts 256°
2026-04-26 20:56 -34.86539 -55.13349 1887 ft 148 kts 255°
2026-04-26 20:56 -34.86861 -55.14599 2455 ft 165 kts 255°
2026-04-26 20:56 -34.87228 -55.16030 2944 ft 189 kts 254°
2026-04-26 20:56 -34.87651 -55.17653 3482 ft 211 kts 254°
2026-04-26 20:57 -34.88107 -55.19389 4357 ft 217 kts 253°
2026-04-26 20:57 -34.88569 -55.21148 5296 ft 222 kts 253°
2026-04-26 20:57 -34.89042 -55.22946 6111 ft 224 kts 253°
2026-04-26 20:57 -34.89451 -55.24786 6972 ft 228 kts 263°
2026-04-26 20:58 -34.89580 -55.26720 7870 ft 231 kts 265°
2026-04-26 20:58 -34.89701 -55.28679 8808 ft 232 kts 265°
2026-04-26 20:58 -34.89823 -55.30640 9726 ft 235 kts 265°
2026-04-26 20:58 -34.89946 -55.32687 10219 ft 253 kts 265°
2026-04-26 20:59 -34.90081 -55.34918 10520 ft 274 kts 265°
2026-04-26 20:59 -34.90223 -55.37286 11088 ft 284 kts 265°
2026-04-26 20:59 -34.90365 -55.39704 11828 ft 289 kts 266°
2026-04-26 20:59 -34.90507 -55.42165 12615 ft 292 kts 266°
2026-04-26 21:00 -34.90651 -55.44656 13345 ft 297 kts 266°
2026-04-26 21:00 -34.90798 -55.47187 13985 ft 302 kts 266°
2026-04-26 21:00 -34.90949 -55.49748 14737 ft 302 kts 266°
2026-04-26 21:00 -34.91102 -55.52330 15533 ft 300 kts 267°
2026-04-26 21:01 -34.91250 -55.54848 16468 ft 296 kts 266°
2026-04-26 21:01 -34.91400 -55.57328 17339 ft 292 kts 266°
2026-04-26 21:01 -34.91544 -55.59780 18211 ft 288 kts 266°
2026-04-26 21:01 -34.91685 -55.62205 18913 ft 286 kts 267°
2026-04-26 21:02 -34.91826 -55.64613 19530 ft 286 kts 268°
2026-04-26 21:02 -34.91964 -55.67027 19755 ft 284 kts 268°
2026-04-26 21:02 -34.92096 -55.69426 19803 ft 283 kts 268°
2026-04-26 21:02 -34.92225 -55.71816 19815 ft 283 kts 268°
2026-04-26 21:03 -34.92357 -55.74205 19820 ft 283 kts 268°
2026-04-26 21:03 -34.92493 -55.76595 19823 ft 283 kts 268°
2026-04-26 21:03 -34.92627 -55.78990 19861 ft 283 kts 267°
2026-04-26 21:03 -34.92765 -55.81411 19838 ft 289 kts 267°
2026-04-26 21:04 -34.92910 -55.83862 19826 ft 291 kts 267°
2026-04-26 21:04 -34.93053 -55.86326 19834 ft 292 kts 267°
2026-04-26 21:04 -34.93190 -55.88801 19831 ft 292 kts 267°
2026-04-26 21:04 -34.93326 -55.91271 19834 ft 292 kts 267°
2026-04-26 21:05 -34.93460 -55.93742 19837 ft 293 kts 267°
2026-04-26 21:05 -34.93593 -55.96220 19838 ft 293 kts 267°
2026-04-26 21:05 -34.93724 -55.98694 19840 ft 293 kts 267°
2026-04-26 21:05 -34.93858 -56.01172 19841 ft 293 kts 267°
2026-04-26 21:06 -34.93992 -56.03650 19844 ft 293 kts 267°
2026-04-26 21:06 -34.94125 -56.06128 19844 ft 293 kts 267°
2026-04-26 21:06 -34.94258 -56.08604 19845 ft 293 kts 267°
2026-04-26 21:06 -34.94390 -56.11084 19847 ft 293 kts 267°
2026-04-26 21:07 -34.94480 -56.12762 19849 ft 293 kts 267°
2026-04-26 21:07 -34.94655 -56.16045 19848 ft 293 kts 267°
2026-04-26 21:07 -34.94785 -56.18557 19848 ft 293 kts 267°
2026-04-26 21:07 -34.94914 -56.21037 19847 ft 293 kts 267°
2026-04-26 21:08 -34.94999 -56.22682 19847 ft 293 kts 267°
2026-04-26 21:08 -34.95132 -56.25159 19848 ft 293 kts 267°
2026-04-26 21:08 -34.95265 -56.27642 19848 ft 293 kts 267°
2026-04-26 21:08 -34.95396 -56.30124 19852 ft 293 kts 267°
2026-04-26 21:09 -34.95524 -56.32613 19789 ft 296 kts 267°
2026-04-26 21:09 -34.95652 -56.35095 19812 ft 289 kts 267°
2026-04-26 21:09 -34.95777 -56.37519 19826 ft 284 kts 266°
2026-04-26 21:09 -34.95905 -56.39921 19823 ft 283 kts 267°
2026-04-26 21:10 -34.96032 -56.42312 19830 ft 283 kts 267°
2026-04-26 21:10 -34.96156 -56.44708 19839 ft 283 kts 267°
2026-04-26 21:10 -34.96275 -56.47099 19839 ft 283 kts 267°
2026-04-26 21:10 -34.96393 -56.49496 19833 ft 283 kts 267°
2026-04-26 21:11 -34.96510 -56.51890 19834 ft 283 kts 267°
2026-04-26 21:11 -34.96628 -56.54316 19845 ft 283 kts 267°
2026-04-26 21:11 -34.96746 -56.56711 19846 ft 283 kts 267°
2026-04-26 21:11 -34.96865 -56.59110 19848 ft 285 kts 266°
2026-04-26 21:12 -34.96988 -56.61552 19846 ft 290 kts 266°
2026-04-26 21:12 -34.97110 -56.64012 19854 ft 291 kts 266°
2026-04-26 21:12 -34.97232 -56.66478 19846 ft 292 kts 266°
2026-04-26 21:12 -34.97354 -56.68948 19848 ft 292 kts 266°
2026-04-26 21:13 -34.97473 -56.71419 19840 ft 292 kts 267°
2026-04-26 21:13 -34.97539 -56.73896 19856 ft 292 kts 269°
2026-04-26 21:13 -34.97556 -56.76374 19849 ft 292 kts 269°
2026-04-26 21:13 -34.97557 -56.78851 19859 ft 292 kts 269°
2026-04-26 21:14 -34.97556 -56.81327 19852 ft 292 kts 269°
2026-04-26 21:14 -34.97558 -56.83805 19861 ft 292 kts 269°
2026-04-26 21:14 -34.97563 -56.86294 19874 ft 297 kts 269°
2026-04-26 21:14 -34.97573 -56.88838 19858 ft 301 kts 269°
2026-04-26 21:15 -34.97582 -56.91397 19862 ft 303 kts 269°
2026-04-26 21:15 -34.97592 -56.93962 19863 ft 303 kts 269°
2026-04-26 21:15 -34.97602 -56.96532 19870 ft 303 kts 269°
2026-04-26 21:15 -34.97611 -56.99103 19872 ft 303 kts 269°
2026-04-26 21:16 -34.97620 -57.01677 19873 ft 303 kts 269°
2026-04-26 21:16 -34.97628 -57.04229 19713 ft 297 kts 269°
2026-04-26 21:16 -34.97635 -57.06702 19463 ft 288 kts 269°
2026-04-26 21:16 -34.97642 -57.09168 19164 ft 286 kts 268°
2026-04-26 21:17 -34.97410 -57.11540 18919 ft 281 kts 281°
2026-04-26 21:17 -34.96836 -57.13802 18678 ft 278 kts 281°
2026-04-26 21:17 -34.96264 -57.16054 18443 ft 279 kts 281°
2026-04-26 21:17 -34.95692 -57.18312 18214 ft 279 kts 281°
2026-04-26 21:18 -34.95115 -57.20579 17949 ft 280 kts 281°
2026-04-26 21:18 -34.94535 -57.22847 17673 ft 281 kts 282°
2026-04-26 21:18 -34.93955 -57.25119 17394 ft 282 kts 282°
2026-04-26 21:18 -34.93373 -57.27403 17127 ft 282 kts 282°
2026-04-26 21:19 -34.92790 -57.29689 16866 ft 283 kts 282°
2026-04-26 21:19 -34.92202 -57.31983 16600 ft 284 kts 282°
2026-04-26 21:19 -34.91612 -57.34282 16329 ft 285 kts 282°
2026-04-26 21:19 -34.91018 -57.36591 16070 ft 286 kts 282°
2026-04-26 21:20 -34.90422 -57.38905 15811 ft 287 kts 282°
2026-04-26 21:20 -34.89820 -57.41239 15553 ft 290 kts 282°
2026-04-26 21:20 -34.89212 -57.43593 15295 ft 292 kts 282°
2026-04-26 21:20 -34.88603 -57.45954 15044 ft 293 kts 282°
2026-04-26 21:21 -34.87994 -57.48317 14806 ft 290 kts 282°
2026-04-26 21:21 -34.87395 -57.50634 14492 ft 285 kts 283°
2026-04-26 21:21 -34.86806 -57.52917 14148 ft 282 kts 283°
2026-04-26 21:21 -34.86220 -57.55189 13788 ft 280 kts 283°
2026-04-26 21:22 -34.85636 -57.57445 13407 ft 279 kts 283°
2026-04-26 21:22 -34.85049 -57.59716 13027 ft 289 kts 283°
2026-04-26 21:22 -34.84442 -57.62076 12631 ft 295 kts 283°
2026-04-26 21:23 -34.83194 -57.66904 11848 ft 303 kts 283°
2026-04-26 21:23 -34.82565 -57.69335 11448 ft 306 kts 283°
2026-04-26 21:23 -34.81915 -57.71836 11019 ft 305 kts 283°
2026-04-26 21:23 -34.81275 -57.74285 10602 ft 303 kts 283°
2026-04-26 21:24 -34.80636 -57.76729 10198 ft 301 kts 283°
2026-04-26 21:24 -34.80001 -57.79154 10124 ft 302 kts 283°
2026-04-26 21:24 -34.79306 -57.81575 9990 ft 303 kts 285°
2026-04-26 21:24 -34.78557 -57.83975 9773 ft 304 kts 286°
2026-04-26 21:25 -34.77782 -57.86374 9001 ft 301 kts 286°
2026-04-26 21:25 -34.77013 -57.88727 8396 ft 299 kts 286°
2026-04-26 21:25 -34.76250 -57.91076 7875 ft 296 kts 285°
2026-04-26 21:25 -34.75509 -57.93364 7272 ft 289 kts 285°
2026-04-26 21:26 -34.74781 -57.95646 6670 ft 291 kts 285°
2026-04-26 21:26 -34.74053 -57.97950 6073 ft 292 kts 285°
2026-04-26 21:26 -34.73325 -58.00255 5516 ft 291 kts 285°
2026-04-26 21:26 -34.72600 -58.02533 4980 ft 290 kts 285°
2026-04-26 21:27 -34.71880 -58.04795 4609 ft 282 kts 285°
2026-04-26 21:27 -34.71197 -58.06918 4340 ft 258 kts 285°
2026-04-26 21:27 -34.70554 -58.08926 3632 ft 252 kts 285°
2026-04-26 21:27 -34.69933 -58.10876 3215 ft 238 kts 285°
2026-04-26 21:28 -34.69361 -58.12652 3110 ft 215 kts 284°
2026-04-26 21:28 -34.68834 -58.14285 3006 ft 196 kts 284°
2026-04-26 21:28 -34.68356 -58.15770 2932 ft 181 kts 283°
2026-04-26 21:28 -34.67917 -58.17141 2856 ft 173 kts 283°
2026-04-26 21:29 -34.67500 -58.18445 2795 ft 153 kts 282°
2026-04-26 21:29 -34.67130 -58.19601 2723 ft 142 kts 281°
2026-04-26 21:29 -34.66781 -58.20702 2652 ft 138 kts 280°
2026-04-26 21:29 -34.66435 -58.21808 2604 ft 144 kts 280°
2026-04-26 21:30 -34.66075 -58.22962 2534 ft 147 kts 281°
2026-04-26 21:30 -34.65637 -58.24120 2512 ft 157 kts 291°
2026-04-26 21:30 -34.65025 -58.25227 2375 ft 158 kts 292°
2026-04-26 21:30 -34.64409 -58.26335 2255 ft 158 kts 292°
2026-04-26 21:31 -34.63793 -58.27443 2155 ft 159 kts 293°
2026-04-26 21:31 -34.63175 -58.28551 2043 ft 158 kts 293°
2026-04-26 21:31 -34.62564 -58.29649 1932 ft 155 kts 293°
2026-04-26 21:31 -34.61974 -58.30699 1853 ft 143 kts 292°
2026-04-26 21:32 -34.61428 -58.31668 1793 ft 136 kts 292°
2026-04-26 21:32 -34.60903 -58.32612 1727 ft 134 kts 291°
2026-04-26 21:32 -34.60383 -58.33550 1708 ft 134 kts 292°
2026-04-26 21:32 -34.59849 -58.34483 1551 ft 135 kts 293°
2026-04-26 21:33 -34.59324 -58.35416 1294 ft 133 kts 291°
2026-04-26 21:33 -34.58825 -58.36358 1023 ft 133 kts 294°
2026-04-26 21:33 -34.58292 -58.37278 783 ft 134 kts 294°
2026-04-26 21:33 -34.57787 -58.38211 569 ft 134 kts 295°
2026-04-26 21:34 -34.57267 -58.39179 360 ft 136 kts 298°
2026-04-26 21:34 -34.56732 -58.40125 181 ft 139 kts 297°
2026-04-26 21:34 -34.56188 -58.41114 35 ft 132 kts 300°
2026-04-26 21:34 -34.55737 -58.41929 25 ft 96 kts 305°
2026-04-26 21:35 -34.55453 -58.42433 26 ft 36 kts 304°
2026-04-26 21:35 -34.55371 -58.42491 29 ft 7 kts 37°
2026-04-26 21:35 -34.55362 -58.42449 25 ft 3 kts 89°
2026-04-26 21:35 -34.55362 -58.42417 25 ft 4 kts 90°
2026-04-26 21:36 -34.55368 -58.42381 25 ft 6 kts 111°
2026-04-26 21:36 -34.55387 -58.42345 25 ft 8 kts 126°
2026-04-26 21:36 -34.55427 -58.42281 27 ft 7 kts 126°
2026-04-26 21:36 -34.55453 -58.42239 27 ft 6 kts 127°
2026-04-26 21:37 -34.55488 -58.42183 26 ft 8 kts 128°
2026-04-26 21:37 -34.55521 -58.42132 28 ft 7 kts 128°
2026-04-26 21:37 -34.55555 -58.42078 28 ft 10 kts 126°
2026-04-26 21:37 -34.55593 -58.42012 27 ft 9 kts 124°
2026-04-26 21:38 -34.55629 -58.41947 28 ft 9 kts 124°
2026-04-26 21:38 -34.55663 -58.41886 28 ft 9 kts 124°
2026-04-26 21:38 -34.55720 -58.41784 26 ft 16 kts 122°
2026-04-26 21:38 -34.55766 -58.41678 28 ft 13 kts 117°
2026-04-26 21:39 -34.55793 -58.41615 29 ft 6 kts 117°
2026-04-26 21:39 -34.55809 -58.41577 30 ft 5 kts 117°
2026-04-26 21:39 -34.55821 -58.41549 28 ft 9 kts 117°
2026-04-26 21:39 -34.55862 -58.41450 25 ft 8 kts 117°
2026-04-26 21:40 -34.55887 -58.41390 27 ft 7 kts 117°
2026-04-26 21:40 -34.55907 -58.41337 28 ft 6 kts 102°
2026-04-26 21:40 -34.55898 -58.41303 25 ft 8 kts 54°
2026-04-26 21:40 -34.55837 -58.41288 28 ft 9 kts 332°
2026-04-26 21:41 -34.55800 -58.41344 30 ft 9 kts 303°
2026-04-26 21:41 -34.55765 -58.41419 26 ft 10 kts 299°
2026-04-26 21:41 -34.55745 -58.41459 28 ft 2 kts 308°
2026-04-26 21:41 -34.55735 -58.41458 30 ft 1 kts 11°
2026-04-26 21:42 -34.55725 -58.41455 27 ft 4 kts 15°
2026-04-26 21:42 -34.55709 -58.41449 30 ft 2 kts 17°
2026-04-26 21:42 -34.55701 -58.41445 25 ft 0 kts 17°